Flag for Vietnam Weather past 2 weeks in Da Nang, Vietnam

Now
81 °F

Fog.


Feels Like: 87 °F
Forecast: 77 / 88 °F
Wind: 1 mph from North

Location: Da Nang Airport

Current Time: Mar 4, 2015 at 11:16:56 PM

Latest Report: Mar 4, 2015 at 10:30 PM


Visibility: 3 mi

Pressure: 29.92 "Hg

Humidity: 89%

Dew point: 77 °F

Location of Da NangLocation

Historic Weather in Da Nang — Graph

°F

Da Nang temperature yesterday

Maximum temperature yesterday: 86 °F (at 11:30 AM)
Minimum temperature yesterday: 73 °F (at 3:00 AM)
Average temperature yesterday: 80 °F

Past Weeks' High & Low Weather Summary

 TemperatureHumidityPressure
High90 °F (Feb 23, 11:00 AM)100% (Feb 18, 2:00 AM)30.09 "Hg (Feb 18, 2:00 AM)
Low72 °F (Feb 18, 4:00 AM)62% (Feb 20, 1:00 PM)29.71 "Hg (Mar 3, 2:30 PM)
Average79 °F84%29.91 "Hg
* Reported Feb 17 10:00 PM — Mar 4 10:00 PM, Da Nang, Weather by CustomWeather, © 2015

Note: Actual official high and low records may vary slightly from our data, if they occured in-between our weather recording intervals... More about our weather records

Advertising

Da Nang weather history for previous 24 hours

 ConditionsComfort  
Time TempWeatherWind HumidityBarometerVisibility
10:00 PM
Wed, Mar 4
81 °FFog.1 mph84%29.92 "Hg3 mi
9:30 PM79 °FFog.1 mph89%29.92 "Hg3 mi
9:00 PM79 °FFog.3 mph89%29.92 "Hg3 mi
8:30 PM81 °FFog.3 mph89%29.89 "Hg3 mi
8:00 PM81 °FFog.3 mph84%29.89 "Hg3 mi
7:30 PM81 °FFog.3 mph84%29.89 "Hg3 mi
7:00 PM81 °FFog.3 mph84%29.86 "Hg3 mi
6:30 PM81 °FFog.3 mph84%29.86 "Hg3 mi
6:00 PM81 °FFog.3 mph84%29.83 "Hg3 mi
5:30 PM81 °FFog.5 mph84%29.83 "Hg3 mi
5:00 PM81 °FFog.7 mph84%29.83 "Hg3 mi
4:30 PM82 °FFog.8 mph79%29.83 "Hg3 mi
4:00 PM82 °FFog.8 mph79%29.80 "Hg3 mi
3:30 PM84 °FFog.7 mph74%29.83 "Hg3 mi
3:00 PM84 °FFog.6 mph70%29.83 "Hg3 mi
2:30 PM84 °FFog.6 mph74%29.83 "Hg3 mi
2:00 PM84 °FFog.6 mph74%29.83 "Hg3 mi
1:30 PM84 °FFog.6 mph74%29.86 "Hg3 mi
1:00 PM84 °FFog.6 mph74%29.86 "Hg3 mi
12:30 PM84 °FFog.6 mph74%29.89 "Hg3 mi
12:00 PM84 °FFog.3 mph74%29.89 "Hg3 mi
11:30 AM84 °FFog.2 mph74%29.92 "Hg3 mi
11:00 AM84 °FFog.3 mph74%29.92 "Hg3 mi
10:30 AM84 °FFog.1 mph74%29.92 "Hg3 mi
10:00 AM81 °FFog.1 mph84%29.95 "Hg3 mi
9:30 AM81 °FFog.2 mph84%29.95 "Hg3 mi
9:00 AM81 °FFog.3 mph89%29.95 "Hg3 mi
8:30 AM79 °FFog.2 mph89%29.92 "Hg2 mi
8:00 AM79 °FFog.6 mph89%29.92 "Hg2 mi
7:30 AM77 °FFog.5 mph94%29.89 "Hg2 mi
7:00 AM77 °FFog.2 mph94%29.89 "Hg2 mi
6:30 AM77 °FFog.2 mph94%29.86 "Hg2 mi
6:00 AM77 °FPassing clouds.2 mph94%29.86 "Hg4 mi
5:30 AM77 °FPassing clouds.2 mph94%29.83 "Hg4 mi
5:00 AM75 °FPassing clouds.1 mph94%29.80 "Hg4 mi
4:30 AM75 °FPassing clouds.1 mph94%29.80 "Hg4 mi
3:00 AM77 °FPassing clouds.2 mph94%29.77 "Hg4 mi
2:30 AM77 °FPassing clouds.3 mph94%29.77 "Hg4 mi
2:00 AM77 °FPassing clouds.2 mph94%29.77 "Hg4 mi
1:30 AM77 °FPassing clouds.2 mph94%29.77 "Hg4 mi
1:00 AM79 °FPassing clouds.No wind89%29.80 "Hg4 mi
12:30 AM79 °FPassing clouds.1 mph89%29.80 "Hg4 mi
12:00 AM79 °FPassing clouds.1 mph89%29.80 "Hg4 mi
11:30 PM
Tue, Mar 3
79 °FPassing clouds.1 mph89%29.80 "Hg4 mi
11:00 PM79 °FPassing clouds.1 mph89%29.80 "Hg4 mi
Weather by CustomWeather, © 2015

See weather overviewHow to use our weather pages